ゲーレルス第3彗星

82P/Gehrels 3 (2010)

English version
Home page
Updated on September 3, 2011

---------------------------------------------------------------------

・ プロフィール

・ 写真集

・ 軌道要素

The following orbital elements are taken from MPC 75717:

Epoch 2010 Jan. 4.0 TT = JDT 2455200.5
T 2010 Jan. 12.0792 TT                                  MPC
q   3.633373             (2000.0)            P               Q
n   0.1170339      Peri.  226.2706      -0.2717752      -0.9622117
a   4.139313       Node   239.5065      +0.8885017      -0.2441174
e   0.122228       Incl.    1.1261      +0.3697336      -0.1206452
P   8.42
From 105 observations 1975-2011, mean residual 0".8.

・ 光度変化

        m1 = 6.5 + 5 logΔ + 20.0 log r

---------------------------------------------------------------------

軌道要素はMPCのEphemerides and Orbital Elementsに掲載されたものです。
光度グラフはComet for Windowsで作成したものです。

---------------------------------------------------------------------

Copyright(C) Seiichi Yoshida (comet@aerith.net). All rights reserved.